Martha's Vineyard, MA

1:06 PM EST on December 12, 2017 (GMT -0500)
Martha's Vineyard

Weather History for KMVY - October, 2013

Change the Weather History Date:

Wednesday, October 2, 2013

  Actual Average Record
Temperature  
Mean Temperature 64 °F -  
Max Temperature 79 °F 67 °F 80 °F (1986)
Min Temperature 48 °F 49 °F 30 °F (1992)
Degree Days  
Heating Degree Days 2    
Growing Degree Days 14 (Base 50)    
Moisture  
Dew Point 55 °F    
Average Humidity 77    
Maximum Humidity 97    
Minimum Humidity 47    
Precipitation  
Precipitation 0.00 in - - ()
Sea Level Pressure  
Sea Level Pressure 29.90 in    
Wind  
Wind Speed 5 mph (West)    
Max Wind Speed 17 mph    
Max Gust Speed 25 mph    
Visibility 9 miles    
Events      
Averages and records for this station are not official NWS values.
T = Trace of Precipitation, MM = Missing Value Source: NWS Daily Summary

Daily Weather History Graph

Daily Weather History Graph

Search for Another Location

Airport or City:

Trip Planner

Search our weather history database for the weather conditions in past years. The results will help you decide how hot, cold, wet, or windy it might be!

Date:

Astronomy

Oct. 02, 2013 Rise Set
Actual Time 6:40 AM EDT 6:22 PM EDT
Civil Twilight 6:12 AM EDT 6:49 PM EDT
Nautical Twilight 5:40 AM EDT 7:21 PM EDT
Astronomical Twilight 5:08 AM EDT 7:54 PM EDT
Moon 4:08 AM EDT (10/2) 4:57 PM EDT (10/2)
Length of Visible Light 12h 36m
Length of Day
11h 41m
Waning Crescent, 6% of the Moon is Illuminated
Oct 2
Waning Crescent
Oct 4
New
Oct 11
First Quarter
Oct 18
Full
Oct 26
Last Quarter

Hourly Weather History & Observations

Time (EDT) Temp. Dew Point Humidity Pressure Visibility Wind Dir Wind Speed Gust Speed Precip Events Conditions
12:23 AM 48.2 °F 46.4 °F 93% 29.90 in 0.8 mi Calm Calm - N/A   Unknown
12:31 AM 48.2 °F 46.4 °F 93% 29.90 in 2.0 mi West 3.5 mph - N/A   Mostly Cloudy
12:37 AM 48.2 °F 46.4 °F 93% 29.90 in 10.0 mi West 3.5 mph - N/A   Scattered Clouds
12:53 AM 48.0 °F 46.0 °F 93% 29.90 in 10.0 mi West 4.6 mph - N/A   Clear
1:53 AM 57.9 °F 55.9 °F 93% 29.91 in 10.0 mi WNW 5.8 mph - N/A   Clear
2:53 AM 57.9 °F 55.9 °F 93% 29.89 in 9.0 mi West 3.5 mph - N/A   Clear
3:53 AM 54.0 °F 53.1 °F 97% 29.89 in 5.0 mi Calm Calm - N/A   Clear
4:08 AM 53.6 °F 51.8 °F 94% 29.89 in 1.8 mi Calm Calm - N/A   Clear
4:26 AM 53.6 °F 51.8 °F 94% 29.89 in 3.0 mi WNW 4.6 mph - N/A   Clear
4:53 AM 59.0 °F 55.9 °F 90% 29.90 in 10.0 mi WNW 5.8 mph - N/A   Clear
5:53 AM 57.9 °F 55.0 °F 90% 29.91 in 10.0 mi WNW 3.5 mph - N/A   Clear
6:53 AM 57.9 °F 55.0 °F 90% 29.91 in 10.0 mi WNW 4.6 mph - N/A   Clear
7:53 AM 63.0 °F 57.9 °F 84% 29.92 in 10.0 mi WNW 4.6 mph - N/A   Clear
8:53 AM 68.0 °F 59.0 °F 73% 29.93 in 10.0 mi West 6.9 mph - N/A   Clear
9:53 AM 72.0 °F 57.0 °F 59% 29.93 in 10.0 mi WNW 8.1 mph - N/A   Clear
10:53 AM 75.0 °F 55.9 °F 51% 29.92 in 10.0 mi West 13.8 mph - N/A   Clear
11:53 AM 75.9 °F 55.9 °F 50% 29.90 in 10.0 mi West 12.7 mph 20.7 mph N/A   Clear
12:53 PM 79.0 °F 57.0 °F 47% 29.88 in 10.0 mi WSW 17.3 mph 23.0 mph N/A   Clear
1:53 PM 77.0 °F 57.0 °F 50% 29.86 in 10.0 mi WSW 17.3 mph 24.2 mph N/A   Clear
2:53 PM 75.9 °F 57.9 °F 54% 29.86 in 10.0 mi West 13.8 mph 25.3 mph N/A   Clear
3:53 PM 77.0 °F 55.0 °F 47% 29.86 in 10.0 mi West 15.0 mph 19.6 mph N/A   Clear
4:53 PM 73.9 °F 57.0 °F 55% 29.85 in 10.0 mi West 10.4 mph 20.7 mph N/A   Clear
5:53 PM 71.1 °F 57.9 °F 63% 29.87 in 10.0 mi WSW 8.1 mph - N/A   Clear
6:53 PM 68.0 °F 60.1 °F 76% 29.89 in 10.0 mi West 4.6 mph - N/A   Clear
7:53 PM 66.0 °F 60.1 °F 81% 29.91 in 10.0 mi West 3.5 mph - N/A   Clear
8:53 PM 62.1 °F 59.0 °F 90% 29.93 in 8.0 mi West 5.8 mph - N/A   Clear
9:53 PM 62.1 °F 57.9 °F 86% 29.94 in 10.0 mi Calm Calm - N/A   Clear
10:53 PM 59.0 °F 55.9 °F 90% 29.95 in 10.0 mi WNW 4.6 mph - N/A   Clear
11:53 PM 66.0 °F 57.9 °F 75% 29.96 in 10.0 mi WNW 5.8 mph - N/A   Clear